Location: Unspecified
(47.4992°N, 121.7766°W)
Time: 05:15:48
(UTC-08:00)

Cosmos 2058 - Visible Passes

Search period start: 16 January 2018 00:00
Search period end: 26 January 2018 00:00
Orbit: 564 x 584 km, 82.5° (Epoch: 16 January)

Date Brightness Start Highest point End Pass type
(mag) Time Alt. Az. Time Alt. Az. Time Alt. Az.
16 Jan 4.4 06:00:22 10° N 06:04:19 37° ENE 06:08:14 10° SE visible
17 Jan 3.9 06:03:29 10° N 06:07:36 48° ENE 06:11:41 10° SSE visible
18 Jan 3.4 06:06:39 10° N 06:10:52 63° ENE 06:15:02 10° SSE visible
18 Jan 5.0 18:34:27 10° SSE 18:35:09 14° SE 18:35:09 14° SE visible
18 Jan 5.8 20:11:12 10° SW 20:11:28 11° SW 20:11:28 11° SW visible
19 Jan 3.0 06:09:52 10° N 06:14:07 83° E 06:18:19 10° S visible
19 Jan 4.0 18:37:20 10° SSE 18:39:49 28° SE 18:39:49 28° SE visible
19 Jan 5.6 20:14:49 10° WSW 20:16:08 16° WSW 20:16:08 16° WSW visible
20 Jan 6.0 04:38:05 10° NE 04:39:50 12° ENE 04:41:34 10° E visible
20 Jan 2.8 06:13:06 10° NNW 06:17:20 75° W 06:21:31 10° S visible
20 Jan 3.1 18:40:20 10° SSE 18:44:19 46° E 18:44:30 45° E visible
20 Jan 5.6 20:18:35 10° WSW 20:20:49 18° W 20:20:49 18° W visible
21 Jan 5.8 04:40:40 10° NNE 04:43:12 15° ENE 04:45:45 10° ESE visible
21 Jan 3.0 06:16:23 10° NNW 06:20:33 57° W 06:24:39 10° S visible
21 Jan 2.9 18:43:23 10° S 18:47:30 60° E 18:49:10 34° NNE visible
21 Jan 5.8 20:22:30 10° W 20:24:52 15° WNW 20:25:28 14° NW visible
22 Jan 5.5 04:43:29 10° NNE 04:46:34 19° ENE 04:49:37 10° ESE visible
22 Jan 3.2 06:19:43 10° NNW 06:23:44 43° W 06:27:42 10° SSW visible
22 Jan 2.8 18:46:32 10° S 18:50:43 80° E 18:53:46 18° NNE visible
22 Jan 6.1 20:26:47 10° W 20:28:15 12° WNW 20:29:44 10° NW visible
23 Jan 5.2 04:46:41 11° NNE 04:49:54 24° ENE 04:53:20 10° SE visible
23 Jan 3.6 06:23:05 10° NNW 06:26:54 33° W 06:30:40 10° SSW visible
23 Jan 3.0 18:49:45 10° SSW 18:53:56 79° W 18:58:10 10° N visible
24 Jan 4.7 04:50:47 18° NNE 04:53:13 30° ENE 04:56:56 10° SE visible
24 Jan 3.9 06:27:04 13° NW 06:30:03 26° W 06:33:32 10° SW visible
24 Jan 3.4 18:53:02 10° SSW 18:57:11 60° WNW 19:01:22 10° N visible
25 Jan 4.2 04:55:03 29° NNE 04:56:31 39° ENE 05:00:27 10° SE visible
25 Jan 4.2 06:31:20 16° NW 06:33:10 20° W 06:36:16 10° SW visible
25 Jan 4.0 18:56:24 10° SSW 19:00:26 45° WNW 19:04:32 10° N visible
